This demonstration page uses our WeatherBlox Daily Observations layout. Learn more.

Left ArrowRight Arrow

39.01783, -85.05884

Hourly Observations for February 12, 2019

Temp ( °F °C ) Dew Point ( °F °C ) Humidity (%) Winds ( mph kmh ) Pressure ( in mb ) Visibility ( mi km ) Precip ( " mm )
12:16 am 00:16 Cloudy with Light Rain 42 5.6 40 4.4 92 92 E 10 17 29.86 1011 4 6 0.01 0.25
12:52 am 00:52 Cloudy with Light Rain 42 5.6 40 4.4 92 92 ESE 10 17 29.81 1009 3 4 0.02 0.51
1:52 am 01:52 Cloudy with Light Rain 42 5.6 41 5 96 96 ESE 7 11 29.78 1008 3 4 0.04 1.02
2:52 am 02:52 Cloudy with Rain 43 6.1 42 5.6 97 97 SE 10 17 29.74 1007 4 6 0.05 1.27
3:52 am 03:52 Cloudy with Light Rain 45 7.2 43 6.1 93 93 SE 9 15 29.69 1006 3 4 0.07 1.78
4:52 am 04:52 Cloudy with Rain 47 8.3 46 7.8 97 97 SSE 6 9 29.67 1005 4 6 0.14 3.56
5:22 am 05:22 Cloudy with Heavy Rain 48 8.9 47 8.3 96 96 SSE 6 9 29.67 1005 3 4 0.12 3.05
5:32 am 05:32 Cloudy with Heavy Rain 48 8.9 47 8.3 96 96 Calm 29.68 1005 1 2 0.20 5.08
5:52 am 05:52 Cloudy with Heavy Rain 49 9.4 48 8.9 97 97 S 3 6 29.66 1005 2 3 0.35 8.89
6:01 am 06:01 Cloudy with Rain 49 9.4 48 8.9 97 97 SE 6 9 29.67 1005 3 4 0.03 0.76
6:16 am 06:16 Cloudy with Rain 50 10 48 8.9 93 93 SSE 8 13 29.65 1004 4 6 0.07 1.78
6:30 am 06:30 Cloudy with Heavy Rain 50 10 48 8.9 93 93 SSE 12 19 29.65 1004 3 4 0.17 4.32
6:52 am 06:52 Cloudy with Light Rain 50 10 49 9.4 96 96 S 7 11 29.64 1004 3 4 0.27 6.86
6:55 am 06:55 Cloudy with Light Rain 50 10 49 9.4 96 96 S 8 13 29.65 1004 3 5 0.01 0.25
7:52 am 07:52 Cloudy with Light Rain 50 10 49 9.4 96 96 S 9 15 29.61 1003 4 6 0.06 1.52
8:03 am 08:03 Cloudy with Light Rain 51 10.6 49 9.4 92 92 S 9 15 29.63 1003 2 3 0.00 0.03
8:13 am 08:13 Cloudy with Light Rain 51 10.6 49 9.4 92 92 S 12 19 29.62 1003 2 3 0.01 0.25
8:52 am 08:52 Cloudy with Light Rain 53 11.7 52 11.1 96 96 S 16 26 29.58 1002 4 6 0.02 0.51
9:05 am 09:05 Cloudy with Light Rain 54 12.2 52 11.1 93 93 S 15 24 29.58 1002 5 8 0.02 0.51
9:52 am 09:52 Cloudy 55 12.8 53 11.7 93 93 SSW 10 17 29.60 1002 8 13 0.02 0.51
10:18 am 10:18 Cloudy with Light Rain 55 12.8 53 11.7 93 93 SW 9 15 29.60 1002 4 6 0.00 0.03
10:33 am 10:33 Cloudy with Light Rain 55 12.8 53 11.7 93 93 SSW 7 11 29.60 1002 3 4 0.01 0.25
10:52 am 10:52 Cloudy with Light Rain 52 11.1 50 10 93 93 W 10 17 29.60 1003 3 4 0.02 0.51
11:23 am 11:23 Cloudy with Light Rain 52 11.1 50 10 93 93 W 12 19 29.64 1004 3 4 0.04 1.02
11:46 am 11:46 Cloudy with Mist and Fog 52 11 50 10 94 94 W 6 9 29.62 1003 3 4 0.04 1.02
11:52 am 11:52 Cloudy with Mist and Fog 52 11.1 50 10 93 93 W 7 11 29.60 1003 3 4 0.04 1.02
12:00 pm 12:00 Cloudy with Mist and Fog 52 11.1 50 10 93 93 W 8 13 29.63 1003 1 2 0.00 0.00
12:16 pm 12:16 Cloudy with Mist and Fog 52 11.1 50 10 93 93 W 7 11 29.62 1003 2 3 0.00 0.00
12:52 pm 12:52 Cloudy with Light Rain 52 11.1 50 10 93 93 WSW 10 17 29.59 1002 2 3 0.00 0.03
1:05 pm 13:05 Cloudy 52 11.1 49 9.4 89 89 WSW 9 15 29.60 1002 2 3 0.01 0.25
1:10 pm 13:10 Cloudy 52 11.1 49 9.4 89 89 WSW 9 15 29.59 1002 7 11 0.01 0.25
1:52 pm 13:52 Cloudy 52 11.1 49 9.4 89 89 W 13 20 29.55 1001 8 13 0.01 0.25
2:08 pm 14:08 Cloudy with Rain 51 10.6 48 8.9 89 89 WSW 17 28 29.57 1001 2 2 0.00 0.03
2:52 pm 14:52 Cloudy with Light Rain 49 9.4 44 6.7 83 83 W 22 35 29.59 1002 5 8 0.06 1.52
3:33 pm 15:33 Cloudy 46 7.8 41 5 83 83 W 23 37 29.62 1003 10 16 0.02 0.51
3:52 pm 15:52 Cloudy 45 7.2 40 4.4 83 83 W 23 37 29.62 1003 10 16 0.02 0.51
4:28 pm 16:28 Mostly Cloudy 42 5.6 37 2.8 82 82 W 29 46 29.69 1005 10 16 0.00 0.00
4:52 pm 16:52 Cloudy 40 4.4 34 1.1 79 79 W 26 43 29.68 1005 10 16 0.00 0.00
5:52 pm 17:52 Cloudy with Light Rain 36 2.2 32 0 86 86 W 18 30 29.75 1007 4 6 0.00 0.03
6:52 pm 18:52 Cloudy 36 2.2 28 -2.2 73 73 W 25 41 29.79 1009 10 16 0.00 0.03
7:52 pm 19:52 Cloudy 34 1.1 26 -3.3 73 73 W 20 31 29.83 1010 10 16 0.00 0.00
8:52 pm 20:52 Cloudy 33 0.6 25 -3.9 72 72 W 17 28 29.84 1011 10 16 0.00 0.03
9:52 pm 21:52 Windy with Snow Likely 33 0.6 26 -3.3 75 75 WSW 20 31 29.84 1011 6 10 0.00 0.03
10:10 pm 22:10 Windy with Snow Likely 32 0 26 -3.3 79 79 W 20 31 29.90 1012 3 4 0.00 0.03
10:17 pm 22:17 Cloudy with Light Snow 31 -0.6 26 -3.3 82 82 WSW 16 26 29.91 1013 6 10 0.01 0.25
10:31 pm 22:31 Cloudy with Light Snow 32 0 25 -3.9 75 75 W 15 24 29.91 1013 9 14 0.01 0.25
10:52 pm 22:52 Windy with Snow Likely 32 0 24 -4.4 73 73 W 23 37 29.87 1011 9 14 0.01 0.25
11:18 pm 23:18 Cloudy with Light Snow 32 0 24 -4.4 73 73 WSW 17 28 29.91 1013 4 6 0.00 0.03
11:37 pm 23:37 Windy with Snow Likely 32 0 23 -5 69 69 WSW 21 33 29.92 1013 9 14 0.00 0.03
11:52 pm 23:52 Windy with Snow Likely 32 0 21 -6.1 64 64 W 21 33 29.88 1012 9 14 0.00 0.03

Powered by AerisWeather